PAOMUHMD

Guest
Details From PAOM - NOME
To UHMD - Provideniya Bay
Flight Number -
Tags generated
Created
Modified
Stats Distance 202 nm / 374 km
Max Altitude 24,200 ft / 7,376 m
Waypoints 4
Social Downloads 1
Likes 0
Share VATSIM

Download

Looking for another format? Having issues loading an existing format? Contact us
Advertisement - Login to hide

Notes

Basic altitude profile: - Ascent Rate: 2500ft/min - Ascent Speed: 250kts - Cruise Altitude: 35000ft - Cruise Speed: 420kts - Descent Rate: 1500ft/min - Descent Speed: 250kts Options: - Use NATs: yes - Use PACOTS: yes - Use low airways: yes - Use high airways: no

Route

PAOM YUREE G212 VALDA UHMD

ID Type Via Altitude Latitude Longitude Leg Dist Tot Dist Heading (true) Name
O PAOM APT - 0 ft / 0 m 64.51223˚ -165.44506˚ - 0 nm - NOME
YUREE FIX - 24,200 ft / 7,376 m 64.45503˚ -168.87867˚ 88 nm 88 nm 269° / 266° -
VALDA FIX G212 (AWY-LO) 12,900 ft / 3,932 m 64.39333˚ -170.91167˚ 52 nm 141 nm 267° / 265° -
O UHMD APT - 0 ft / 0 m 64.36548˚ -173.23902˚ 60 nm 202 nm 269° / 267° Provideniya Bay

Altitude Profile

Advertisement - Login to hide

Weather


0- 5 10 15 20 25 30 35+ Temperature / ° C

Clouds and Precipitation
Forecast for 2018-05-23 18:00 UTC. Updated 4 hours ago

Ground ~20,000 ft ~40,000 ft Winds

PAOM

Details ICAO PAOM (OME)
Name NOME
Region USA (Alaska)
Timezone America/Nome (UTC-8.0)
Stats Elevation 37 ft / 11 m (AMSL)
Location 64.512227° -165.445062°
Runways 2
Magnetic Variation 9.889° E

METAR

PAOM 232053Z 16004KT 10SM OVC008 01/00 A2969

Decode

TAF

TAF PAOM 231758Z 2318/2418 10009KT P6SM OVC006 FM232200 15005KT P6SM FEW005 OVC012 FM241400 34004KT P6SM SCT012 BKN050 BKN100

Decode

Departure Runways

ID Width Length Bearing (true) Bearing (mag) Surface Threshold Offset Overrun Length
03 151 ft / 46 m 5,560 ft / 1,695 m 41.63° 31.74° Asphalt 0 ft / 0 m 0 ft / 0 m
10 151 ft / 46 m 5,979 ft / 1,822 m 109.76° 99.87° Asphalt 0 ft / 0 m 0 ft / 0 m
21 151 ft / 46 m 5,560 ft / 1,695 m 221.65° 211.76° Asphalt 0 ft / 0 m 0 ft / 0 m
28 151 ft / 46 m 5,979 ft / 1,822 m 289.80° 279.91° Asphalt 0 ft / 0 m 0 ft / 0 m

UHMD

Details ICAO UHMD (PVS)
Name Provideniya Bay
Region Russia
Timezone Asia/Anadyr (UTC+12.0)
Stats Elevation 71 ft / 22 m (AMSL)
Location 64.365475° -173.239022°
Runways 2
Magnetic Variation 6.022° E

METAR

UHMD 232100Z 03006MPS 9999 SCT013 BKN019 01/M03 Q1006 RMK QBB400 MT OBSC QFE753/1005

Decode

TAF

Not found

Destination Runways

ID Width Length Bearing (true) Bearing (mag) Surface Threshold Offset Overrun Length
01 299 ft / 91 m 8,140 ft / 2,481 m 21.46° 15.44° Gravel 0 ft / 0 m 0 ft / 0 m
03 213 ft / 65 m 3,998 ft / 1,219 m 32.10° 26.08° Gravel 0 ft / 0 m 0 ft / 0 m
19 299 ft / 91 m 8,140 ft / 2,481 m 201.48° 195.46° Gravel 0 ft / 0 m 0 ft / 0 m
21 213 ft / 65 m 3,998 ft / 1,219 m 212.11° 206.09° Gravel 0 ft / 0 m 0 ft / 0 m

Popular Alternatives